Time,TemperatureF,DewpointF,PressureIn,WindDirection,WindDirectionDegrees,WindSpeedMPH,WindSpeedGustMPH,Humidity,HourlyPrecipIn,Conditions,Clouds,dailyrainin,SoftwareType,DateUTC
2013-04-10 00:02:00,25.0,13.0,30.32,NW,321,5.0,11.0,61,0.00,,,0.00,,2013-04-10 05:02:00,
2013-04-10 00:13:00,25.0,13.0,30.32,NW,321,5.0,11.0,61,0.00,,,0.00,,2013-04-10 05:13:00,
2013-04-10 00:23:00,24.0,13.0,30.30,North,349,2.0,12.0,62,0.00,,,0.00,,2013-04-10 05:23:00,
2013-04-10 00:33:00,24.0,14.0,30.27,North,355,3.0,12.0,64,0.00,,,0.00,,2013-04-10 05:33:00,
2013-04-10 00:42:00,24.0,14.0,30.27,North,355,3.0,12.0,64,0.00,,,0.00,,2013-04-10 05:42:00,
2013-04-10 00:52:00,24.0,14.0,30.33,NNW,327,7.0,16.0,64,0.00,,,0.00,,2013-04-10 05:52:00,
2013-04-10 01:03:00,24.0,14.0,30.32,WNW,295,6.0,13.0,64,0.00,,,0.00,,2013-04-10 06:03:00,
2013-04-10 01:12:00,24.0,13.0,30.32,WNW,300,6.0,11.0,63,0.00,,,0.00,,2013-04-10 06:12:00,
2013-04-10 01:22:00,24.0,13.0,30.32,WNW,300,6.0,11.0,63,0.00,,,0.00,,2013-04-10 06:22:00,
2013-04-10 01:32:00,24.0,13.0,30.33,NW,314,5.0,15.0,63,0.00,,,0.00,,2013-04-10 06:32:00,
2013-04-10 01:42:00,24.0,13.0,30.33,NW,314,5.0,15.0,63,0.00,,,0.00,,2013-04-10 06:42:00,
2013-04-10 01:52:00,25.0,14.0,30.36,West,271,4.0,12.0,62,0.00,,,0.00,,2013-04-10 06:52:00,
2013-04-10 02:02:00,25.0,13.0,30.34,NNW,343,4.0,14.0,61,0.00,,,0.00,,2013-04-10 07:02:00,
2013-04-10 02:12:00,25.0,13.0,30.34,NNW,343,4.0,14.0,61,0.00,,,0.00,,2013-04-10 07:12:00,
2013-04-10 02:22:00,25.0,13.0,30.32,NNW,332,9.0,18.0,61,0.00,,,0.00,,2013-04-10 07:22:00,
2013-04-10 02:32:00,25.0,13.0,30.32,WNW,290,8.0,15.0,61,0.00,,,0.00,,2013-04-10 07:32:00,
2013-04-10 02:42:00,25.0,13.0,30.32,WNW,290,8.0,15.0,61,0.00,,,0.00,,2013-04-10 07:42:00,
2013-04-10 02:52:00,25.0,14.0,30.32,NW,305,6.0,17.0,62,0.00,,,0.00,,2013-04-10 07:52:00,
2013-04-10 03:02:00,24.0,13.0,30.26,NW,304,8.0,15.0,62,0.00,,,0.00,,2013-04-10 08:02:00,
2013-04-10 03:12:00,24.0,13.0,30.26,NW,304,8.0,15.0,62,0.00,,,0.00,,2013-04-10 08:12:00,
2013-04-10 03:22:00,24.0,13.0,30.27,NW,323,8.0,18.0,63,0.00,,,0.00,,2013-04-10 08:22:00,
2013-04-10 03:32:00,24.0,13.0,30.27,North,10,4.0,13.0,63,0.00,,,0.00,,2013-04-10 08:32:00,
2013-04-10 03:42:00,24.0,13.0,30.27,North,10,4.0,13.0,63,0.00,,,0.00,,2013-04-10 08:42:00,
2013-04-10 03:52:00,24.0,13.0,30.26,North,355,5.0,9.0,63,0.00,,,0.00,,2013-04-10 08:52:00,
2013-04-10 04:02:00,24.0,13.0,30.24,West,272,3.0,14.0,63,0.00,,,0.00,,2013-04-10 09:02:00,
2013-04-10 04:12:00,24.0,13.0,30.21,ENE,69,7.0,14.0,63,0.00,,,0.00,,2013-04-10 09:12:00,
2013-04-10 04:22:00,24.0,13.0,30.21,ENE,69,7.0,14.0,63,0.00,,,0.00,,2013-04-10 09:22:00,
2013-04-10 04:32:00,24.0,14.0,30.19,ENE,65,4.0,14.0,64,0.00,,,0.00,,2013-04-10 09:32:00,
2013-04-10 04:43:00,24.0,14.0,30.19,ENE,65,4.0,14.0,64,0.00,,,0.00,,2013-04-10 09:43:00,
2013-04-10 04:52:00,24.0,13.0,30.21,North,355,7.0,14.0,63,0.00,,,0.00,,2013-04-10 09:52:00,
2013-04-10 05:03:00,24.0,14.0,30.21,North,360,3.0,14.0,64,0.00,,,0.00,,2013-04-10 10:03:00,
2013-04-10 05:13:00,24.0,14.0,30.21,ENE,77,2.0,11.0,65,0.00,,,0.00,,2013-04-10 10:13:00,
2013-04-10 05:23:00,24.0,14.0,30.21,ENE,77,2.0,11.0,65,0.00,,,0.00,,2013-04-10 10:23:00,
2013-04-10 05:33:00,24.0,14.0,30.19,ENE,63,4.0,12.0,65,0.00,,,0.00,,2013-04-10 10:33:00,
2013-04-10 05:42:00,24.0,14.0,30.19,ENE,63,4.0,12.0,65,0.00,,,0.00,,2013-04-10 10:42:00,
2013-04-10 05:52:00,24.0,14.0,30.21,NE,38,5.0,12.0,65,0.00,,,0.00,,2013-04-10 10:52:00,
2013-04-10 06:02:00,24.0,14.0,30.20,ENE,71,4.0,12.0,65,0.00,,,0.00,,2013-04-10 11:02:00,
2013-04-10 06:12:00,24.0,14.0,30.20,ENE,71,4.0,12.0,65,0.00,,,0.00,,2013-04-10 11:12:00,
2013-04-10 06:22:00,25.0,15.0,30.22,NNE,25,3.0,7.0,65,0.00,,,0.00,,2013-04-10 11:22:00,
2013-04-10 06:32:00,25.0,15.0,30.19,NNE,19,3.0,9.0,65,0.00,,,0.00,,2013-04-10 11:32:00,
2013-04-10 06:42:00,25.0,15.0,30.19,NNE,19,3.0,9.0,65,0.00,,,0.00,,2013-04-10 11:42:00,
2013-04-10 06:52:00,25.0,15.0,30.23,NNW,341,0.0,5.0,65,0.00,,,0.00,,2013-04-10 11:52:00,
2013-04-10 07:03:00,25.0,14.0,30.24,North,5,4.0,9.0,63,0.00,,,0.00,,2013-04-10 12:03:00,
2013-04-10 07:12:00,25.0,14.0,30.24,North,5,4.0,9.0,63,0.00,,,0.00,,2013-04-10 12:12:00,
2013-04-10 07:22:00,25.0,15.0,30.24,NNW,331,4.0,9.0,64,0.00,,,0.00,,2013-04-10 12:22:00,
2013-04-10 07:33:00,25.0,15.0,30.24,NNW,327,4.0,9.0,64,0.00,,,0.00,,2013-04-10 12:33:00,
2013-04-10 07:42:00,25.0,15.0,30.24,NNW,327,4.0,9.0,64,0.00,,,0.00,,2013-04-10 12:42:00,
2013-04-10 07:52:00,26.0,15.0,30.26,NNW,332,4.0,12.0,62,0.00,,,0.00,,2013-04-10 12:52:00,
2013-04-10 08:02:00,26.0,15.0,30.24,NNW,340,4.0,9.0,62,0.00,,,0.00,,2013-04-10 13:02:00,
2013-04-10 08:12:00,26.0,15.0,30.24,NNW,340,4.0,9.0,62,0.00,,,0.00,,2013-04-10 13:12:00,
2013-04-10 08:23:00,25.0,14.0,30.24,NW,307,6.0,13.0,63,0.00,,,0.00,,2013-04-10 13:23:00,
2013-04-10 08:32:00,26.0,15.0,30.24,NNW,338,4.0,14.0,62,0.00,,,0.00,,2013-04-10 13:32:00,
2013-04-10 08:43:00,26.0,15.0,30.24,NNW,338,4.0,14.0,62,0.00,,,0.00,,2013-04-10 13:43:00,
2013-04-10 08:52:00,25.0,14.0,30.24,NNW,331,6.0,15.0,63,0.00,,,0.00,,2013-04-10 13:52:00,
2013-04-10 09:02:00,25.0,14.0,30.24,NNW,333,6.0,14.0,62,0.00,,,0.00,,2013-04-10 14:02:00,
2013-04-10 09:12:00,25.0,14.0,30.24,NNW,333,6.0,14.0,62,0.00,,,0.00,,2013-04-10 14:12:00,
2013-04-10 09:22:00,26.0,14.0,30.24,NW,319,7.0,13.0,61,0.00,,,0.00,,2013-04-10 14:22:00,
2013-04-10 09:32:00,26.0,14.0,30.24,NW,308,6.0,15.0,61,0.00,,,0.00,,2013-04-10 14:32:00,
2013-04-10 09:42:00,26.0,14.0,30.24,NW,308,6.0,15.0,61,0.00,,,0.00,,2013-04-10 14:42:00,
2013-04-10 09:52:00,26.0,14.0,30.23,NW,314,7.0,13.0,61,0.00,,,0.00,,2013-04-10 14:52:00,
2013-04-10 10:02:00,26.0,14.0,30.22,NNW,336,5.0,14.0,61,0.00,,,0.00,,2013-04-10 15:02:00,
2013-04-10 10:12:00,26.0,14.0,30.22,NNW,336,5.0,14.0,61,0.00,,,0.00,,2013-04-10 15:12:00,
2013-04-10 10:22:00,26.0,14.0,30.22,NW,319,5.0,15.0,60,0.00,,,0.00,,2013-04-10 15:22:00,
2013-04-10 10:32:00,27.0,15.0,30.23,West,273,5.0,13.0,59,0.00,,,0.00,,2013-04-10 15:32:00,
2013-04-10 10:42:00,27.0,15.0,30.23,West,273,5.0,13.0,59,0.00,,,0.00,,2013-04-10 15:42:00,
2013-04-10 10:52:00,27.0,14.0,30.23,North,355,3.0,10.0,58,0.00,,,0.00,,2013-04-10 15:52:00,
2013-04-10 11:03:00,28.0,15.0,30.23,NE,42,2.0,10.0,57,0.00,,,0.00,,2013-04-10 16:03:00,
2013-04-10 11:13:00,28.0,15.0,30.23,NE,42,2.0,10.0,57,0.00,,,0.00,,2013-04-10 16:13:00,
2013-04-10 11:23:00,29.0,15.0,30.23,NNE,19,4.0,12.0,55,0.00,,,0.00,,2013-04-10 16:23:00,
2013-04-10 11:33:00,29.0,14.0,30.22,North,5,6.0,12.0,52,0.00,,,0.00,,2013-04-10 16:33:00,
2013-04-10 11:43:00,29.0,14.0,30.22,North,5,6.0,12.0,52,0.00,,,0.00,,2013-04-10 16:43:00,
2013-04-10 11:52:00,30.0,13.0,30.22,NE,47,7.0,14.0,49,0.00,,,0.00,,2013-04-10 16:52:00,
2013-04-10 12:02:00,30.0,13.0,30.22,NE,38,4.0,17.0,49,0.00,,,0.00,,2013-04-10 17:02:00,
2013-04-10 12:12:00,31.0,15.0,30.21,ENE,71,8.0,14.0,50,0.00,,,0.00,,2013-04-10 17:12:00,
2013-04-10 12:22:00,31.0,15.0,30.21,ENE,71,8.0,14.0,50,0.00,,,0.00,,2013-04-10 17:22:00,
2013-04-10 12:33:00,32.0,15.0,30.22,ENE,69,5.0,14.0,48,0.00,,,0.00,,2013-04-10 17:33:00,
2013-04-10 12:43:00,32.0,15.0,30.22,ENE,69,5.0,14.0,48,0.00,,,0.00,,2013-04-10 17:43:00,
2013-04-10 12:52:00,32.0,14.0,30.22,NNE,13,8.0,16.0,46,0.00,,,0.00,,2013-04-10 17:52:00,
2013-04-10 13:03:00,33.0,19.0,30.20,North,355,3.0,11.0,55,0.00,,,0.00,,2013-04-10 18:03:00,
2013-04-10 13:12:00,33.0,19.0,30.20,North,355,3.0,11.0,55,0.00,,,0.00,,2013-04-10 18:12:00,
2013-04-10 13:23:00,33.0,21.0,30.19,NNE,24,7.0,14.0,61,0.00,,,0.00,,2013-04-10 18:23:00,
2013-04-10 13:33:00,33.0,21.0,30.19,NW,318,4.0,14.0,60,0.00,,,0.00,,2013-04-10 18:33:00,
2013-04-10 13:42:00,33.0,21.0,30.19,NW,318,4.0,14.0,60,0.00,,,0.00,,2013-04-10 18:42:00,
2013-04-10 13:52:00,34.0,22.0,30.18,NE,36,4.0,12.0,60,0.00,,,0.00,,2013-04-10 18:52:00,
2013-04-10 14:03:00,33.0,19.0,30.17,ENE,78,6.0,16.0,57,0.00,,,0.00,,2013-04-10 19:03:00,
2013-04-10 14:12:00,33.0,19.0,30.17,ENE,78,6.0,16.0,57,0.00,,,0.00,,2013-04-10 19:12:00,
2013-04-10 14:22:00,33.0,19.0,30.17,NNW,344,6.0,15.0,56,0.00,,,0.00,,2013-04-10 19:22:00,
2013-04-10 14:33:00,33.0,19.0,30.16,North,5,6.0,12.0,57,0.00,,,0.00,,2013-04-10 19:33:00,
2013-04-10 14:42:00,33.0,19.0,30.16,North,5,6.0,12.0,57,0.00,,,0.00,,2013-04-10 19:42:00,
2013-04-10 14:52:00,33.0,19.0,30.18,NE,47,4.0,11.0,57,0.00,,,0.00,,2013-04-10 19:52:00,
2013-04-10 15:03:00,33.0,19.0,30.18,WNW,302,4.0,10.0,57,0.00,,,0.00,,2013-04-10 20:03:00,
2013-04-10 15:12:00,32.0,18.0,30.19,North,5,3.0,10.0,56,0.00,,,0.00,,2013-04-10 20:12:00,
2013-04-10 15:23:00,32.0,18.0,30.19,North,5,3.0,10.0,56,0.00,,,0.00,,2013-04-10 20:23:00,
2013-04-10 15:33:00,33.0,18.0,30.19,NNW,348,2.0,9.0,54,0.00,,,0.00,,2013-04-10 20:33:00,
2013-04-10 15:42:00,32.0,17.0,30.16,NE,47,3.0,11.0,54,0.00,,,0.00,,2013-04-10 20:42:00,
2013-04-10 15:52:00,32.0,17.0,30.16,NE,47,3.0,11.0,54,0.00,,,0.00,,2013-04-10 20:52:00,
2013-04-10 16:03:00,32.0,17.0,30.15,North,5,4.0,12.0,54,0.00,,,0.00,,2013-04-10 21:03:00,
2013-04-10 16:13:00,32.0,17.0,30.15,North,5,4.0,12.0,54,0.00,,,0.00,,2013-04-10 21:13:00,
2013-04-10 16:22:00,32.0,17.0,30.15,NW,312,5.0,11.0,54,0.00,,,0.00,,2013-04-10 21:22:00,
2013-04-10 16:33:00,32.0,17.0,30.15,North,355,3.0,12.0,54,0.00,,,0.00,,2013-04-10 21:33:00,
2013-04-10 16:43:00,32.0,17.0,30.15,North,355,3.0,12.0,54,0.00,,,0.00,,2013-04-10 21:43:00,
2013-04-10 16:53:00,32.0,18.0,30.14,ESE,122,3.0,10.0,56,0.00,,,0.00,,2013-04-10 21:53:00,
2013-04-10 17:03:00,32.0,19.0,30.14,NNE,19,2.0,11.0,59,0.00,,,0.00,,2013-04-10 22:03:00,
2013-04-10 17:13:00,32.0,19.0,30.14,NNE,19,2.0,11.0,59,0.00,,,0.00,,2013-04-10 22:13:00,
2013-04-10 17:23:00,31.0,20.0,30.12,NNW,342,4.0,14.0,63,0.00,,,0.00,,2013-04-10 22:23:00,
2013-04-10 17:33:00,31.0,20.0,30.12,NNE,25,4.0,10.0,64,0.00,,,0.00,,2013-04-10 22:33:00,
2013-04-10 17:42:00,31.0,20.0,30.12,NNE,25,4.0,10.0,64,0.00,,,0.00,,2013-04-10 22:42:00,
2013-04-10 17:52:00,31.0,21.0,30.12,ESE,109,4.0,10.0,65,0.00,,,0.00,,2013-04-10 22:52:00,
2013-04-10 18:03:00,31.0,21.0,30.10,South,184,2.0,12.0,65,0.00,,,0.00,,2013-04-10 23:03:00,
2013-04-10 18:12:00,31.0,21.0,30.10,South,184,2.0,12.0,65,0.00,,,0.00,,2013-04-10 23:12:00,
2013-04-10 18:22:00,31.0,21.0,30.10,NNW,331,3.0,11.0,66,0.00,,,0.00,,2013-04-10 23:22:00,
2013-04-10 18:33:00,31.0,21.0,30.09,NW,323,3.0,11.0,65,0.00,,,0.00,,2013-04-10 23:33:00,
2013-04-10 18:42:00,31.0,21.0,30.09,NW,323,3.0,11.0,65,0.00,,,0.00,,2013-04-10 23:42:00,
2013-04-10 18:52:00,31.0,20.0,30.09,North,351,4.0,11.0,64,0.00,,,0.00,,2013-04-10 23:52:00,
2013-04-10 19:02:00,31.0,21.0,30.08,West,259,1.0,8.0,65,0.00,,,0.00,,2013-04-11 00:02:00,
2013-04-10 19:12:00,31.0,21.0,30.08,West,259,1.0,8.0,65,0.00,,,0.00,,2013-04-11 00:12:00,
2013-04-10 19:22:00,31.0,21.0,30.08,WNW,286,1.0,9.0,65,0.00,,,0.00,,2013-04-11 00:22:00,
2013-04-10 19:32:00,31.0,20.0,30.07,North,355,1.0,9.0,64,0.00,,,0.00,,2013-04-11 00:32:00,
2013-04-10 19:42:00,31.0,20.0,30.07,North,355,1.0,9.0,64,0.00,,,0.00,,2013-04-11 00:42:00,
2013-04-10 19:52:00,31.0,20.0,30.07,North,355,1.0,9.0,64,0.00,,,0.00,,2013-04-11 00:52:00,
2013-04-10 20:02:00,31.0,21.0,30.04,NNE,24,2.0,11.0,66,0.00,,,0.00,,2013-04-11 01:02:00,
2013-04-10 20:12:00,31.0,21.0,30.04,NNE,24,2.0,11.0,66,0.00,,,0.00,,2013-04-11 01:12:00,
2013-04-10 20:22:00,31.0,21.0,30.03,ENE,58,2.0,6.0,67,0.00,,,0.00,,2013-04-11 01:22:00,
2013-04-10 20:32:00,31.0,21.0,30.02,WNW,294,3.0,8.0,67,0.00,,,0.00,,2013-04-11 01:32:00,
2013-04-10 20:42:00,31.0,21.0,30.02,WNW,294,3.0,8.0,67,0.00,,,0.00,,2013-04-11 01:42:00,
2013-04-10 20:52:00,31.0,21.0,30.01,NW,315,2.0,8.0,67,0.00,,,0.00,,2013-04-11 01:52:00,
2013-04-10 21:03:00,31.0,21.0,30.02,NNW,329,3.0,7.0,67,0.00,,,0.00,,2013-04-11 02:03:00,
2013-04-10 21:12:00,31.0,21.0,30.02,NW,311,4.0,9.0,67,0.00,,,0.00,,2013-04-11 02:12:00,
2013-04-10 21:22:00,31.0,21.0,30.02,NW,311,4.0,9.0,67,0.00,,,0.00,,2013-04-11 02:22:00,
2013-04-10 21:32:00,31.0,21.0,30.03,NE,45,0.0,10.0,67,0.00,,,0.00,,2013-04-11 02:32:00,
2013-04-10 21:42:00,31.0,21.0,30.03,NE,45,0.0,10.0,67,0.00,,,0.00,,2013-04-11 02:42:00,
2013-04-10 21:52:00,31.0,22.0,30.04,NE,53,2.0,8.0,68,0.00,,,0.00,,2013-04-11 02:52:00,
2013-04-10 22:02:00,31.0,22.0,30.05,East,84,3.0,6.0,68,0.00,,,0.00,,2013-04-11 03:02:00,
2013-04-10 22:12:00,31.0,22.0,30.05,East,84,3.0,6.0,68,0.00,,,0.00,,2013-04-11 03:12:00,
2013-04-10 22:22:00,31.0,22.0,30.05,East,88,3.0,8.0,69,0.00,,,0.00,,2013-04-11 03:22:00,
2013-04-10 22:33:00,32.0,22.0,30.05,East,99,11.0,18.0,66,0.00,,,0.00,,2013-04-11 03:33:00,
2013-04-10 22:43:00,32.0,22.0,30.05,East,99,11.0,18.0,66,0.00,,,0.00,,2013-04-11 03:43:00,
2013-04-10 22:53:00,32.0,22.0,30.05,East,99,11.0,18.0,66,0.00,,,0.00,,2013-04-11 03:53:00,
2013-04-10 23:03:00,31.0,22.0,30.05,NE,55,15.0,26.0,70,0.00,,,0.00,,2013-04-11 04:03:00,
2013-04-10 23:13:00,31.0,22.0,30.04,ESE,116,14.0,19.0,69,0.00,,,0.00,,2013-04-11 04:13:00,
2013-04-10 23:22:00,31.0,22.0,30.04,ESE,116,14.0,19.0,69,0.00,,,0.00,,2013-04-11 04:22:00,
2013-04-10 23:33:00,31.0,20.0,30.03,East,80,14.0,21.0,62,0.00,,,0.00,,2013-04-11 04:33:00,
2013-04-10 23:42:00,31.0,20.0,30.03,East,80,14.0,21.0,62,0.00,,,0.00,,2013-04-11 04:42:00,
2013-04-10 23:52:00,31.0,21.0,30.02,ENE,74,13.0,19.0,67,0.00,,,0.00,,2013-04-11 04:52:00,